This is the latest recevied weather packets stored in our database for station/object N9ALD. If no packets are shown the sender has not sent any weather packets the latest 10 day(s).
| Time | Temp. | Humidity | Pressure | Rain* | Wind** | Luminosity | Snow |
|---|---|---|---|---|---|---|---|
| 1777642980 | 8.89° C | 81% | 1010.8 hPa | 0 mm | - | 275 W/m² | - |
| 1777642675 | 8.89° C | 81% | 1011 hPa | 0 mm | - | 168 W/m² | - |
| 1777642373 | 8.89° C | 83% | 1010.8 hPa | 0 mm | - | 125 W/m² | - |
| 1777642069 | 8.89° C | 83% | 1010.9 hPa | 0 mm | - | 260 W/m² | - |
| 1777641766 | 8.89° C | 82% | 1010.8 hPa | 0 mm | - | 135 W/m² | - |
| 1777641466 | 8.89° C | 83% | 1010.8 hPa | 0 mm | - | 139 W/m² | - |
| 1777641162 | 8.89° C | 84% | 1010.8 hPa | 0 mm | - | 142 W/m² | - |
| 1777640858 | 8.89° C | 84% | 1010.7 hPa | 0 mm | - | 153 W/m² | - |
| 1777640555 | 8.89° C | 84% | 1010.7 hPa | 0 mm | - | 101 W/m² | - |
| 1777640252 | 8.89° C | 85% | 1010.5 hPa | 0 mm | - | 91 W/m² | - |
| 1777639948 | 8.89° C | 82% | 1010.6 hPa | 0 mm | - | 88 W/m² | - |
| 1777639645 | 8.89° C | 82% | 1010.4 hPa | 0 mm | - | 88 W/m² | - |
| 1777639343 | 8.33° C | 85% | 1010.4 hPa | 0 mm | - | 150 W/m² | - |
| 1777639038 | 8.33° C | 87% | 1010.4 hPa | 0 mm | - | 113 W/m² | - |
| 1777638735 | 8.33° C | 86% | 1010.2 hPa | 0 mm | - | 78 W/m² | - |
| 1777638431 | 8.33° C | 86% | 1010.3 hPa | 0 mm | - | 51 W/m² | - |
| 1777638128 | 8.33° C | 86% | 1010.1 hPa | 0 mm | - | 42 W/m² | - |
| 1777637823 | 8.89° C | 86% | 1010 hPa | 0 mm | - | 61 W/m² | - |
| 1777637520 | 8.89° C | 86% | 1010 hPa | 0 mm | - | 70 W/m² | - |
| 1777637218 | 8.89° C | 87% | 1009.8 hPa | 0 mm | - | 80 W/m² | - |
| 1777636914 | 8.89° C | 88% | 1009.9 hPa | 0 mm | - | 57 W/m² | - |
| 1777636610 | 8.89° C | 88% | 1009.7 hPa | 0 mm | - | 24 W/m² | - |
| 1777636306 | 8.89° C | 88% | 1009.7 hPa | 0 mm | - | 35 W/m² | - |
| 1777636001 | 8.89° C | 89% | 1009.5 hPa | 1.78 mm | - | 21 W/m² | - |
| 1777635697 | 8.89° C | 89% | 1009.4 hPa | 1.78 mm | - | 14 W/m² | - |
* Rain latest hour (hover to see other rain measurements)
** Current wind speed in m/s (hover to see current wind gust speed)